TimeEDT,TemperatureF,Dew PointF,Humidity,Sea Level PressureIn,VisibilityMPH,Wind Direction,Wind SpeedMPH,Gust SpeedMPH,PrecipitationIn,Events,Conditions,WindDirDegrees,DateUTC
12:00 AM,42.8,41.0,93,29.88,9.0,Variable,2.3,-,N/A,,Clear,0,2012-10-17 04:00:00
1:50 AM,41.0,39.2,93,29.90,4.0,Calm,Calm,-,N/A,,Clear,0,2012-10-17 05:50:00
1:52 AM,41.0,39.2,93,29.90,2.5,Calm,Calm,-,N/A,,Clear,0,2012-10-17 05:52:00
2:00 AM,41,40,95,29.90,3,ENE,1.2,,,,Mist,60,2012-10-17 06:00:00
2:02 AM,41.0,39.2,93,29.90,6.0,Calm,Calm,-,N/A,,Clear,0,2012-10-17 06:02:00
2:41 AM,41.0,39.2,93,29.90,5.0,ESE,3.5,-,N/A,,Clear,120,2012-10-17 06:41:00
3:00 AM,41.0,41.0,100,29.89,9.0,ENE,3.5,-,N/A,,Clear,70,2012-10-17 07:00:00
4:00 AM,42.8,42.8,100,29.87,9.0,ENE,9.2,-,N/A,,Clear,60,2012-10-17 08:00:00
5:00 AM,44.6,42.8,93,29.86,8.0,ENE,12.7,-,N/A,,Mostly Cloudy,70,2012-10-17 09:00:00
6:00 AM,44.6,42.8,93,29.87,9.0,ENE,12.7,-,N/A,,Overcast,70,2012-10-17 10:00:00
7:00 AM,44.6,42.8,93,29.87,9.0,ENE,11.5,-,N/A,,Overcast,70,2012-10-17 11:00:00
8:00 AM,46,43,86,29.86,10,ENE,11.5,,,,Overcast,70,2012-10-17 12:00:00
8:00 AM,46.4,42.8,87,29.86,9.0,ENE,11.5,-,N/A,,Overcast,70,2012-10-17 12:00:00
8:34 AM,46.4,42.8,87,29.88,9.0,ENE,9.2,-,N/A,Rain,Light Rain,70,2012-10-17 12:34:00
8:52 AM,46.4,42.8,87,29.88,5.0,East,6.9,-,N/A,Rain,Rain,80,2012-10-17 12:52:00
9:00 AM,46.4,42.8,87,29.88,4.0,East,8.1,-,N/A,Rain,Light Rain,90,2012-10-17 13:00:00
9:07 AM,46.4,42.8,87,29.88,6.0,ENE,12.7,-,N/A,Rain,Light Rain,70,2012-10-17 13:07:00
9:43 AM,46.4,44.6,93,29.87,9.0,ENE,11.5,-,N/A,,Overcast,60,2012-10-17 13:43:00
10:00 AM,46.4,44.6,93,29.87,9.0,ENE,11.5,-,N/A,,Overcast,70,2012-10-17 14:00:00
10:10 AM,46.4,44.6,93,29.87,9.0,East,9.2,-,N/A,Rain,Light Rain,80,2012-10-17 14:10:00
10:23 AM,46.4,44.6,93,29.87,9.0,East,6.9,-,N/A,,Overcast,90,2012-10-17 14:23:00
10:47 AM,48.2,44.6,87,29.87,9.0,East,6.9,-,N/A,Rain,Light Rain,90,2012-10-17 14:47:00
11:00 AM,48.2,44.6,87,29.86,8.0,East,8.1,-,N/A,Rain,Light Rain,80,2012-10-17 15:00:00
11:18 AM,46.4,44.6,93,29.85,5.0,ENE,10.4,-,N/A,Rain,Rain,70,2012-10-17 15:18:00
11:34 AM,46.4,46.4,100,29.84,6.0,ENE,11.5,-,N/A,Rain,Light Rain,70,2012-10-17 15:34:00
12:00 PM,48.2,46.4,93,29.83,9.0,ENE,9.2,-,N/A,Rain,Light Rain,70,2012-10-17 16:00:00
12:30 PM,50.0,46.4,87,29.82,9.0,East,6.9,-,N/A,,Mostly Cloudy,90,2012-10-17 16:30:00
1:00 PM,51.8,48.2,88,29.80,9.0,East,5.8,-,N/A,,Mostly Cloudy,90,2012-10-17 17:00:00
2:00 PM,57,49,65,29.80,10,SSE,6.9,,,,Clear,160,2012-10-17 18:00:00
2:00 PM,57.2,48.2,72,29.80,9.0,South,6.9,-,N/A,,Scattered Clouds,170,2012-10-17 18:00:00
3:00 PM,53.6,46.4,77,29.78,9.0,ENE,10.4,-,N/A,,Clear,70,2012-10-17 19:00:00
5:00 PM,51.8,46.4,82,29.76,9.0,East,15.0,-,N/A,,Mostly Cloudy,80,2012-10-17 21:00:00
6:00 PM,51.8,46.4,82,29.77,9.0,ENE,13.8,-,N/A,,Mostly Cloudy,70,2012-10-17 22:00:00
6:39 PM,51.8,46.4,82,29.77,9.0,ENE,15.0,-,N/A,Rain,Light Rain,70,2012-10-17 22:39:00
6:48 PM,51.8,48.2,88,29.77,9.0,ENE,15.0,-,N/A,,Overcast,70,2012-10-17 22:48:00
6:50 PM,51.8,48.2,88,29.77,9.0,ENE,15.0,-,N/A,Rain,Light Rain,70,2012-10-17 22:50:00
7:00 PM,51.8,48.2,88,29.77,9.0,ENE,13.8,-,N/A,,Overcast,70,2012-10-17 23:00:00
7:03 PM,51.8,48.2,88,29.77,9.0,ENE,15.0,-,N/A,Rain,Light Rain,70,2012-10-17 23:03:00
7:12 PM,51.8,48.2,88,29.78,9.0,ENE,13.8,-,N/A,,Overcast,70,2012-10-17 23:12:00
8:00 PM,51,47,82,29.77,10,ENE,13.8,,,,,70,2012-10-18 00:00:00
8:00 PM,51.8,46.4,82,29.77,9.0,ENE,12.7,-,N/A,,Scattered Clouds,70,2012-10-18 00:00:00
9:00 PM,51.8,48.2,88,29.76,9.0,ENE,13.8,-,N/A,,Clear,70,2012-10-18 01:00:00
10:00 PM,53.6,46.4,77,29.75,9.0,ENE,15.0,-,N/A,,Clear,70,2012-10-18 02:00:00
11:00 PM,53.6,46.4,77,29.75,9.0,ENE,13.8,-,N/A,,Clear,70,2012-10-18 03:00:00